DECAYED

STARLINK-4604, 53618 (Decayed)

Orbit data source: Space-Track

STARLINK-4604, 53618 was a payload satellite owned by SpaceX/Seattle (US) in LEO that was launched on Sun, 28 Aug 2022 UTC via an FALCON 9 launch vehicle from the Air Force Eastern Test Range (AFETR). Payload-class satellites include a variety of spacecraft equipped with specific instruments for various scientific and technological missions. These include communications satellites like Starlink; space stations such as the ISS; scientific satellites like the Hubble; Earth observation satellites from companies like Planet Labs, Umbra, and HawkEye 360; GPS; miniature CubeSats for education and research; and military/defense satellites.

Not visible in the next 10 days
Identifier
53618, 2022-104AG
Orbit
Decayed
Last TLE update
3 months ago
Origin
Manufacturer
SpaceX/Seattle
Mission
Decayed Commercial Communications
Bus & Motor
STARLINK, Unknown motor
Mass
300 kg wet, ~290 kg dry
Launch date (UTC)
2022-08-28 (3 years ago)
Launch vehicle
FALCON 9
Launch site
Air Force Eastern Test Range (AFETR)
Object type
Payload
Rocket body
Debris
Shape & HBR
Box + 1 Pan, 8.86 m
Radar Cross Section
13.562 m², Large (>1 m²)

Expand to show TLE details & history

TLE from 3 months ago
0 STARLINK-4604
1 53618U 22104AG  25103.85771517  .10352294  12491-4  54875-3 0  9993
2 53618  53.2027 250.0955 0006454 316.8166 167.4098 16.42326242145603
Epoch: 2025-04-13T20:35Z
TLE epoch observation values (Epoch: 2025-04-13T20:35:06.59Z)
Latitude
41.58862°
Longitude
-122.26579°
Altitude
167.649 km
Speed
7.809 km/s
True Right ascension
01h 55m 10s
True Declination
41° 24' 09"
Sunlit
Object was in daylight at epoch
Visualization orbit readout
Visualization observer readout
Orbital elements
Apogee altitude
164.103 km
Perigee altitude
155.663 km
Semi-major axis
6,538.02 km
Eccentricity
0.00065
Inclination
53.2027°
RAAN
250.0955°
Arg. of periapsis
316.8166°
True anomaly
Unknown
Mean anomaly
167.4098°
Eccentric anomaly
Unknown
Mean motion
4.10557 °/min
Orbital period
87.69 mins
BSTAR
0.00054875
Loading maneuver chart data...
Loading SW <> Apogee altitude chart data...
Loading historical data...
Loading historical data...
Loading historical data...
Loading historical data...
Loading historical data...
Loading historical data...
Loading historical data...

STARLINK-4604 Visibility

Observer location: undefined°, undefined°

This satellite is decayed
Span
Click to sort rows by Start time (UTC) header in descending order
Start Az.
Max El. time (UTC)
Max El. Az.
Max El.
End time (UTC)
End Az.
|